Weather History for Miami, FL

Change the Weather History Date:

Friday, December 6, 2013

  Actual Average Record
Temperature  
Mean Temperature 78 °F 72 °F  
Max Temperature 83 °F 79 °F 86 °F (1983)
Min Temperature 73 °F 65 °F 44 °F (1986)
Degree Days  
Heating Degree Days 0 1  
Month to date heating degree days 0 2  
Since 1 July heating degree days 2 5  
Cooling Degree Days 13 7  
Month to date cooling degree days 53 47  
Year to date cooling degree days 4594 4419  
Growing Degree Days 28 (Base 50)    
Moisture  
Dew Point 68 °F    
Average Humidity 70    
Maximum Humidity 82    
Minimum Humidity 58    
Precipitation  
Precipitation 0.00 in 0.07 in 0.76 in (1977)
Month to date precipitation 0.21 0.43  
Year to date precipitation 65.96 60.29  
Snow  
Snow 0.00 in - - ()
Month to date snowfall 0.0  
Since 1 July snowfall 0.0  
Snow Depth 0.00 in    
Sea Level Pressure  
Sea Level Pressure 30.15 in    
Wind  
Wind Speed 11 mph (ESE)    
Max Wind Speed 20 mph    
Max Gust Speed 26 mph    
Visibility 10 miles    
Events      
T = Trace of Precipitation, MM = Missing Value Source: NWS Daily Summary

Daily Weather History Graph

Daily Weather History Graph

Search for Another Location

Airport:

Trip Planner

Search our weather history database for the weather conditions in past years. The results will help you decide how hot, cold, wet, or windy it might be!

Date:

Astronomy

Dec. 06, 2013 Rise Set
Actual Time 6:54 AM EST 5:30 PM EST
Civil Twilight 6:29 AM EST 5:55 PM EST
Nautical Twilight 6:01 AM EST 6:23 PM EST
Astronomical Twilight 5:32 AM EST 6:51 PM EST
Moon 10:11 AM EST (12/6) 9:44 PM EST (12/6)
Length of Visible Light 11h 25m
Length of Day
10h 35m
Waxing Crescent, 19% of the Moon is Illuminated
Dec 6
Waxing Crescent
Dec 9
First Quarter
Dec 17
Full
Dec 25
Last Quarter
Jan 1
New

Hourly Weather History & Observations

Time (EST) Temp. Heat Index Dew Point Humidity Pressure Visibility Wind Dir Wind Speed Gust Speed Precip Events Conditions
12:53 AM 77.0 °F - 70.0 °F 79% 30.12 in 10.0 mi East 11.5 mph - N/A   Scattered Clouds
1:53 AM 75.9 °F - 70.0 °F 82% 30.10 in 10.0 mi ESE 10.4 mph - N/A   Scattered Clouds
2:53 AM 75.9 °F - 70.0 °F 82% 30.09 in 10.0 mi ESE 10.4 mph - N/A   Scattered Clouds
3:53 AM 75.9 °F - 70.0 °F 82% 30.10 in 10.0 mi ESE 11.5 mph - N/A   Scattered Clouds
4:53 AM 75.9 °F - 69.1 °F 79% 30.11 in 10.0 mi ESE 10.4 mph - N/A   Clear
5:53 AM 75.9 °F - 69.1 °F 79% 30.12 in 10.0 mi ESE 10.4 mph - N/A   Partly Cloudy
6:53 AM 75.9 °F - 69.1 °F 79% 30.14 in 10.0 mi ESE 9.2 mph - N/A   Partly Cloudy
7:53 AM 77.0 °F - 69.1 °F 76% 30.16 in 10.0 mi ESE 11.5 mph - N/A   Scattered Clouds
8:53 AM 79.0 °F - 69.1 °F 72% 30.18 in 10.0 mi ESE 12.7 mph - N/A   Partly Cloudy
9:53 AM 80.1 °F 82.7 °F 68.0 °F 67% 30.19 in 10.0 mi SE 16.1 mph 23.0 mph N/A   Partly Cloudy
10:53 AM 81.0 °F 83.8 °F 68.0 °F 65% 30.19 in 10.0 mi SE 18.4 mph 23.0 mph N/A   Scattered Clouds
11:53 AM 82.0 °F 84.9 °F 68.0 °F 62% 30.18 in 10.0 mi SE 16.1 mph 25.3 mph N/A   Mostly Cloudy
12:53 PM 82.0 °F 84.5 °F 66.9 °F 60% 30.16 in 10.0 mi SE 17.3 mph 24.2 mph N/A   Scattered Clouds
1:53 PM 81.0 °F 83.0 °F 66.0 °F 60% 30.13 in 10.0 mi SE 12.7 mph 24.2 mph N/A   Scattered Clouds
2:53 PM 80.1 °F 82.1 °F 66.0 °F 62% 30.12 in 10.0 mi SE 13.8 mph 20.7 mph N/A   Scattered Clouds
3:53 PM 79.0 °F - 66.0 °F 64% 30.12 in 10.0 mi SE 10.4 mph - N/A   Partly Cloudy
4:53 PM 78.1 °F - 64.0 °F 62% 30.14 in 10.0 mi SE 9.2 mph - N/A   Partly Cloudy
5:53 PM 77.0 °F - 64.0 °F 64% 30.14 in 10.0 mi East 6.9 mph - N/A   Partly Cloudy
6:53 PM 77.0 °F - 64.9 °F 66% 30.17 in 10.0 mi ESE 4.6 mph - N/A   Partly Cloudy
7:53 PM 75.9 °F - 66.0 °F 71% 30.17 in 10.0 mi East 6.9 mph - N/A   Partly Cloudy
8:53 PM 75.0 °F - 66.0 °F 73% 30.18 in 10.0 mi East 4.6 mph - N/A   Partly Cloudy
9:53 PM 73.9 °F - 66.0 °F 76% 30.19 in 10.0 mi East 5.8 mph - N/A   Partly Cloudy
10:53 PM 73.9 °F - 66.9 °F 79% 30.19 in 10.0 mi East 8.1 mph - N/A   Partly Cloudy
11:53 PM 75.0 °F - 66.9 °F 76% 30.18 in 10.0 mi East 6.9 mph - N/A   Partly Cloudy